Weather History for Reggio Calabria, Italy

Change the Weather History Date:

Tuesday, October 23, 2012

  Actual Average Record
Temperature  
Mean Temperature 70 °F -  
Max Temperature 77 °F 68 °F 84 °F (2006)
Min Temperature 62 °F 57 °F 51 °F (2007)
Cooling Degree Days 4    
Growing Degree Days 20 (Base 50)    
Moisture  
Dew Point 57 °F    
Average Humidity 62    
Maximum Humidity 69    
Minimum Humidity 47    
Precipitation  
Precipitation 0.00 in - - ()
Sea Level Pressure  
Sea Level Pressure 30.03 in    
Wind  
Wind Speed 6 mph ()    
Max Wind Speed 13 mph    
Max Gust Speed -    
Visibility 6.2 miles    
Events      
Averages and records for this station are not official NWS values.
T = Trace of Precipitation, MM = Missing Value Source: Averaged Metar Reports

Daily Weather History Graph

Daily Weather History Graph

Search for Another Location

Airport:

Trip Planner

Search our weather history database for the weather conditions in past years. The results will help you decide how hot, cold, wet, or windy it might be!

Date:

Astronomy

Oct. 23, 2012 Rise Set
Actual Time 7:14 AM CEST 6:08 PM CEST
Civil Twilight 6:47 AM CEST 6:35 PM CEST
Nautical Twilight 6:16 AM CEST 7:06 PM CEST
Astronomical Twilight 5:45 AM CEST 7:36 PM CEST
Moon 2:37 PM CEST (10/23) 12:53 AM CEST (10/23)
Length of Visible Light 11h 48m
Length of Day
10h 54m
Waxing Gibbous, 64% of the Moon is Illuminated
Oct 23
Waxing Gibbous
Oct 29
Full
Nov 7
Last Quarter
Nov 13
New
Nov 20
First Quarter

Hourly Weather History & Observations

Time (CEST) Temp. Dew Point Humidity Pressure Visibility Wind Dir Wind Speed Gust Speed Precip Events Conditions
5:50 AM 64.4 °F 50.0 °F 59% 30.01 in 6.2 mi ENE 6.9 mph - N/A   Partly Cloudy
6:50 AM 64.4 °F 50.0 °F 59% 30.01 in - Variable 4.6 mph - N/A   Clear
7:50 AM 62.6 °F 50.0 °F 63% 30.01 in - NE 4.6 mph - N/A   Clear
8:50 AM 68.0 °F 53.6 °F 60% 30.04 in - NE 4.6 mph - N/A   Clear
9:50 AM 73.4 °F 59.0 °F 61% 30.04 in - SW 3.5 mph - N/A   Clear
10:50 AM 73.4 °F 62.6 °F 69% 30.04 in 6.2 mi SSW 5.8 mph - N/A   Partly Cloudy
11:50 AM 75.2 °F 62.6 °F 65% 30.04 in 6.2 mi SSW 10.4 mph - N/A   Partly Cloudy
12:50 PM 77.0 °F 60.8 °F 57% 30.04 in 6.2 mi SSW 12.7 mph - N/A   Partly Cloudy
1:50 PM 75.2 °F 55.4 °F 50% 30.01 in 6.2 mi SSW 12.7 mph - N/A   Partly Cloudy
2:50 PM 75.2 °F 53.6 °F 47% 30.01 in 6.2 mi SSW 11.5 mph - N/A   Partly Cloudy
3:50 PM 75.2 °F 59.0 °F 57% 30.01 in 6.2 mi SSW 9.2 mph - N/A   Partly Cloudy
4:50 PM 73.4 °F 55.4 °F 53% 30.01 in 6.2 mi SSW 6.9 mph - N/A   Partly Cloudy
5:50 PM 71.6 °F 60.8 °F 69% 30.01 in 6.2 mi SSW 9.2 mph - N/A   Partly Cloudy
6:50 PM 69.8 °F 57.2 °F 64% 30.01 in 6.2 mi SSE 4.6 mph - N/A   Partly Cloudy
7:50 PM 69.8 °F 59.0 °F 68% 30.04 in 6.2 mi SSE 3.5 mph - N/A   Partly Cloudy
8:50 PM 68.0 °F 57.2 °F 68% 30.04 in 6.2 mi East 4.6 mph - N/A   Partly Cloudy
9:50 PM 68.0 °F 57.2 °F 68% 30.04 in 6.2 mi East 5.8 mph - N/A   Partly Cloudy
10:50 PM 66.2 °F 55.4 °F 68% 30.04 in 6.2 mi East 4.6 mph - N/A   Partly Cloudy
11:50 PM 66.2 °F 55.4 °F 68% 30.04 in 6.2 mi ENE 5.8 mph - N/A   Partly Cloudy